NORTHEAST SUFFOLK  -  Frost Advisory Frost Advisory        NORTHWEST SUFFOLK  -  Frost Advisory Frost Advisory        SOUTHEAST SUFFOLK  -  Frost Advisory Frost Advisory        SOUTHWEST SUFFOLK  -  Frost Advisory Frost Advisory      

Active alerts

Northwest Suffolk
  Details for Northwest Suffolk Frost Advisory
Southwest Suffolk
  Details for Southwest Suffolk Frost Advisory
Northeast Suffolk
  Details for Northeast Suffolk Frost Advisory
Southeast Suffolk
  Details for Southeast Suffolk Frost Advisory


WXM80 ListenWXM80 Stop

You find our weather info also at:

UK Metoffice

WeatherCloud

Weather Underground

Northeastern Weather Network

AWEKAS

Citizen Weather Observer Program (CWOP)

HAMweather, WeatherForYou, PWS Weather


Weather Underground History page Text

Daily Summary for July 15, 2017 Units:  Both    English   Metric
« Previous Day
Next Day »
Daily Weekly Monthly Yearly Custom
  High: Low: Average:
Temperature: 89.0 °F /  31.7 °C 66.7 °F /  19.3 °C 74.7 °F /  23.7 °C
Dew Point: 76.2 °F /  24.6 °C 64.9 °F /  18.3 °C 68.4 °F /  20.2 °C
Humidity: 99 % 56 % 83 %
Wind Speed: 5.0 mph /  8 km/h - 0.6 mph /  1 km/h
Wind Gust: 8.1 mph /  13 km/h - -
Wind:- - SSW
Pressure: 29.92 in /  1013.1 hPa 29.82 in /  1009.7 hPa -
Precipitation: 0.00 in /  0 mm    
Historical Graphs
 
 
Tabular Data for July 15, 2017
Time Temperature Dew Point Pressure Wind Wind Speed Wind Gust Humidity Rainfall Rate (Hourly)
00:03 66.9 °F /  19.4 °C 66.3 °F /  19.1 °C 29.92 in /  1013.1 hPa Calm   1.2 mph /  1.9 km/h 98 % 0.00 in /  0 mm
00:04 66.9 °F /  19.4 °C 66.3 °F /  19.1 °C 29.92 in /  1013.1 hPa ENE 0.2 mph /  0.3 km/h 1.2 mph /  1.9 km/h 98 % 0.00 in /  0 mm
00:09 66.9 °F /  19.4 °C 66.3 °F /  19.1 °C 29.91 in /  1012.8 hPa Calm     98 % 0.00 in /  0 mm
00:14 66.8 °F /  19.3 °C 66.2 °F /  19 °C 29.92 in /  1013.1 hPa Calm     98 % 0.00 in /  0 mm
00:19 66.8 °F /  19.3 °C 66.2 °F /  19 °C 29.92 in /  1013.1 hPa Calm   1.2 mph /  1.9 km/h 98 % 0.00 in /  0 mm
00:24 66.7 °F /  19.3 °C 66.1 °F /  18.9 °C 29.92 in /  1013.1 hPa Calm   1.2 mph /  1.9 km/h 98 % 0.00 in /  0 mm
00:29 66.7 °F /  19.3 °C 66.1 °F /  18.9 °C 29.92 in /  1013.1 hPa Calm   1.2 mph /  1.9 km/h 98 % 0.00 in /  0 mm
00:34 66.7 °F /  19.3 °C 66.1 °F /  18.9 °C 29.92 in /  1013.1 hPa ENE 0.2 mph /  0.3 km/h 1.2 mph /  1.9 km/h 98 % 0.00 in /  0 mm
00:39 66.7 °F /  19.3 °C 66.1 °F /  18.9 °C 29.92 in /  1013.1 hPa Calm   1.2 mph /  1.9 km/h 98 % 0.00 in /  0 mm
00:44 66.7 °F /  19.3 °C 66.1 °F /  18.9 °C 29.92 in /  1013.1 hPa Calm   1.2 mph /  1.9 km/h 98 % 0.00 in /  0 mm
00:49 66.7 °F /  19.3 °C 66.1 °F /  18.9 °C 29.92 in /  1013.1 hPa ENE 0.2 mph /  0.3 km/h 1.2 mph /  1.9 km/h 98 % 0.00 in /  0 mm
00:54 66.7 °F /  19.3 °C 66.1 °F /  18.9 °C 29.92 in /  1013.1 hPa ENE 0.1 mph /  0.2 km/h 1.2 mph /  1.9 km/h 98 % 0.00 in /  0 mm
00:59 66.7 °F /  19.3 °C 66.1 °F /  18.9 °C 29.92 in /  1013.1 hPa Calm   1.2 mph /  1.9 km/h 98 % 0.00 in /  0 mm
01:04 66.8 °F /  19.3 °C 66.2 °F /  19 °C 29.92 in /  1013.1 hPa ENE 0.2 mph /  0.3 km/h 1.2 mph /  1.9 km/h 98 % 0.00 in /  0 mm
01:09 66.8 °F /  19.3 °C 66.2 °F /  19 °C 29.92 in /  1013.1 hPa ENE 0.2 mph /  0.3 km/h 1.2 mph /  1.9 km/h 98 % 0.00 in /  0 mm
01:14 66.9 °F /  19.4 °C 66.3 °F /  19.1 °C 29.92 in /  1013.1 hPa Calm   1.2 mph /  1.9 km/h 98 % 0.00 in /  0 mm
01:19 66.9 °F /  19.4 °C 66.3 °F /  19.1 °C 29.92 in /  1013.1 hPa ENE 0.2 mph /  0.3 km/h 1.2 mph /  1.9 km/h 98 % 0.00 in /  0 mm
01:24 66.9 °F /  19.4 °C 66.3 °F /  19.1 °C 29.92 in /  1013.1 hPa ENE 0.4 mph /  0.6 km/h 1.2 mph /  1.9 km/h 98 % 0.00 in /  0 mm
01:29 66.9 °F /  19.4 °C 66.3 °F /  19.1 °C 29.92 in /  1013.1 hPa ENE 0.1 mph /  0.2 km/h 1.2 mph /  1.9 km/h 98 % 0.00 in /  0 mm
01:35 67.0 °F /  19.4 °C 66.4 °F /  19.1 °C 29.92 in /  1013.1 hPa ENE 0.4 mph /  0.6 km/h 2.3 mph /  3.7 km/h 98 % 0.00 in /  0 mm
01:40 67.0 °F /  19.4 °C 66.4 °F /  19.1 °C 29.92 in /  1013.1 hPa ENE 0.2 mph /  0.3 km/h 1.2 mph /  1.9 km/h 98 % 0.00 in /  0 mm
01:45 67.0 °F /  19.4 °C 66.4 °F /  19.1 °C 29.92 in /  1013.1 hPa ENE 0.2 mph /  0.3 km/h 1.2 mph /  1.9 km/h 98 % 0.00 in /  0 mm
01:50 67.0 °F /  19.4 °C 66.4 °F /  19.1 °C 29.91 in /  1012.8 hPa ENE 0.1 mph /  0.2 km/h 1.2 mph /  1.9 km/h 98 % 0.00 in /  0 mm
01:55 67.0 °F /  19.4 °C 66.4 °F /  19.1 °C 29.92 in /  1013.1 hPa ENE 0.3 mph /  0.5 km/h 1.2 mph /  1.9 km/h 98 % 0.00 in /  0 mm
02:00 67.0 °F /  19.4 °C 66.4 °F /  19.1 °C 29.92 in /  1013.1 hPa Calm   1.2 mph /  1.9 km/h 98 % 0.00 in /  0 mm
02:05 67.1 °F /  19.5 °C 66.5 °F /  19.2 °C 29.92 in /  1013.1 hPa ENE 0.1 mph /  0.2 km/h 1.2 mph /  1.9 km/h 98 % 0.00 in /  0 mm
02:11 67.1 °F /  19.5 °C 66.5 °F /  19.2 °C 29.91 in /  1012.8 hPa Calm   1.0 mph /  1.6 km/h 98 % 0.00 in /  0 mm
02:16 67.1 °F /  19.5 °C 66.5 °F /  19.2 °C 29.91 in /  1012.8 hPa Calm   1.2 mph /  1.9 km/h 98 % 0.00 in /  0 mm
02:21 67.2 °F /  19.6 °C 66.6 °F /  19.2 °C 29.91 in /  1012.8 hPa Calm   1.2 mph /  1.9 km/h 98 % 0.00 in /  0 mm
02:26 67.2 °F /  19.6 °C 66.6 °F /  19.2 °C 29.91 in /  1012.8 hPa Calm   1.2 mph /  1.9 km/h 98 % 0.00 in /  0 mm
02:31 67.2 °F /  19.6 °C 66.6 °F /  19.2 °C 29.91 in /  1012.8 hPa Calm     98 % 0.00 in /  0 mm
02:36 67.2 °F /  19.6 °C 66.6 °F /  19.2 °C 29.91 in /  1012.8 hPa ENE 0.1 mph /  0.2 km/h 1.2 mph /  1.9 km/h 98 % 0.00 in /  0 mm
02:41 67.2 °F /  19.6 °C 66.6 °F /  19.2 °C 29.90 in /  1012.4 hPa Calm   1.2 mph /  1.9 km/h 98 % 0.00 in /  0 mm
02:46 67.3 °F /  19.6 °C 66.7 °F /  19.3 °C 29.91 in /  1012.8 hPa Calm   1.2 mph /  1.9 km/h 98 % 0.00 in /  0 mm
02:51 67.3 °F /  19.6 °C 66.7 °F /  19.3 °C 29.90 in /  1012.4 hPa ENE 0.1 mph /  0.2 km/h 1.2 mph /  1.9 km/h 98 % 0.00 in /  0 mm
02:56 67.3 °F /  19.6 °C 66.7 °F /  19.3 °C 29.90 in /  1012.4 hPa ENE 0.1 mph /  0.2 km/h 1.2 mph /  1.9 km/h 98 % 0.00 in /  0 mm
03:01 67.3 °F /  19.6 °C 66.7 °F /  19.3 °C 29.90 in /  1012.4 hPa Calm     98 % 0.00 in /  0 mm
03:06 67.3 °F /  19.6 °C 66.7 °F /  19.3 °C 29.89 in /  1012.1 hPa Calm   1.2 mph /  1.9 km/h 98 % 0.00 in /  0 mm
03:11 67.2 °F /  19.6 °C 66.6 °F /  19.2 °C 29.89 in /  1012.1 hPa Calm     98 % 0.00 in /  0 mm
03:16 67.2 °F /  19.6 °C 66.6 °F /  19.2 °C 29.89 in /  1012.1 hPa Calm     98 % 0.00 in /  0 mm
03:21 67.2 °F /  19.6 °C 66.6 °F /  19.2 °C 29.89 in /  1012.1 hPa Calm   1.2 mph /  1.9 km/h 98 % 0.00 in /  0 mm
03:26 67.2 °F /  19.6 °C 66.6 °F /  19.2 °C 29.88 in /  1011.7 hPa Calm   1.2 mph /  1.9 km/h 98 % 0.00 in /  0 mm
03:31 67.2 °F /  19.6 °C 66.6 °F /  19.2 °C 29.88 in /  1011.7 hPa ENE 0.3 mph /  0.5 km/h 2.0 mph /  3.2 km/h 98 % 0.00 in /  0 mm
03:37 67.1 °F /  19.5 °C 66.5 °F /  19.2 °C 29.89 in /  1012.1 hPa Calm   1.2 mph /  1.9 km/h 98 % 0.00 in /  0 mm
03:42 67.1 °F /  19.5 °C 66.5 °F /  19.2 °C 29.88 in /  1011.7 hPa Calm     98 % 0.00 in /  0 mm
03:47 67.1 °F /  19.5 °C 66.5 °F /  19.2 °C 29.88 in /  1011.7 hPa Calm   1.2 mph /  1.9 km/h 98 % 0.00 in /  0 mm
03:52 67.1 °F /  19.5 °C 66.5 °F /  19.2 °C 29.88 in /  1011.7 hPa Calm   1.2 mph /  1.9 km/h 98 % 0.00 in /  0 mm
03:57 67.1 °F /  19.5 °C 66.5 °F /  19.2 °C 29.88 in /  1011.7 hPa Calm   1.2 mph /  1.9 km/h 98 % 0.00 in /  0 mm
04:02 67.2 °F /  19.6 °C 66.6 °F /  19.2 °C 29.89 in /  1012.1 hPa Calm   1.2 mph /  1.9 km/h 98 % 0.00 in /  0 mm
04:07 67.1 °F /  19.5 °C 66.5 °F /  19.2 °C 29.88 in /  1011.7 hPa Calm   1.2 mph /  1.9 km/h 98 % 0.00 in /  0 mm
04:12 67.1 °F /  19.5 °C 66.5 °F /  19.2 °C 29.88 in /  1011.7 hPa Calm     98 % 0.00 in /  0 mm
04:17 67.1 °F /  19.5 °C 66.5 °F /  19.2 °C 29.89 in /  1012.1 hPa Calm     98 % 0.00 in /  0 mm
04:22 67.1 °F /  19.5 °C 66.5 °F /  19.2 °C 29.89 in /  1012.1 hPa Calm     98 % 0.00 in /  0 mm
04:27 67.1 °F /  19.5 °C 66.5 °F /  19.2 °C 29.88 in /  1011.7 hPa Calm     98 % 0.00 in /  0 mm
04:32 67.0 °F /  19.4 °C 66.4 °F /  19.1 °C 29.88 in /  1011.7 hPa Calm     98 % 0.00 in /  0 mm
04:37 67.0 °F /  19.4 °C 66.4 °F /  19.1 °C 29.88 in /  1011.7 hPa Calm     98 % 0.00 in /  0 mm
04:42 67.0 °F /  19.4 °C 66.4 °F /  19.1 °C 29.88 in /  1011.7 hPa Calm     98 % 0.00 in /  0 mm
04:47 67.0 °F /  19.4 °C 66.4 °F /  19.1 °C 29.88 in /  1011.7 hPa Calm     98 % 0.00 in /  0 mm
04:52 66.9 °F /  19.4 °C 66.3 °F /  19.1 °C 29.88 in /  1011.7 hPa Calm     98 % 0.00 in /  0 mm
04:57 66.9 °F /  19.4 °C 66.3 °F /  19.1 °C 29.88 in /  1011.7 hPa Calm     98 % 0.00 in /  0 mm
05:02 66.9 °F /  19.4 °C 66.3 °F /  19.1 °C 29.88 in /  1011.7 hPa Calm     98 % 0.00 in /  0 mm
05:06 66.9 °F /  19.4 °C 66.3 °F /  19.1 °C 29.89 in /  1012.1 hPa Calm     98 % 0.00 in /  0 mm
05:11 66.9 °F /  19.4 °C 66.3 °F /  19.1 °C 29.89 in /  1012.1 hPa Calm     98 % 0.00 in /  0 mm
05:16 66.9 °F /  19.4 °C 66.3 °F /  19.1 °C 29.89 in /  1012.1 hPa Calm     98 % 0.00 in /  0 mm
05:21 66.9 °F /  19.4 °C 66.3 °F /  19.1 °C 29.89 in /  1012.1 hPa Calm     98 % 0.00 in /  0 mm
05:26 66.9 °F /  19.4 °C 66.3 °F /  19.1 °C 29.89 in /  1012.1 hPa Calm     98 % 0.00 in /  0 mm
05:31 66.8 °F /  19.3 °C 66.2 °F /  19 °C 29.89 in /  1012.1 hPa Calm     98 % 0.00 in /  0 mm
05:36 66.8 °F /  19.3 °C 66.2 °F /  19 °C 29.88 in /  1011.7 hPa Calm     98 % 0.00 in /  0 mm
05:41 66.9 °F /  19.4 °C 66.3 °F /  19.1 °C 29.89 in /  1012.1 hPa Calm     98 % 0.00 in /  0 mm
05:46 66.9 °F /  19.4 °C 66.3 °F /  19.1 °C 29.88 in /  1011.7 hPa Calm     98 % 0.00 in /  0 mm
05:51 66.9 °F /  19.4 °C 66.3 °F /  19.1 °C 29.88 in /  1011.7 hPa ENE 0.4 mph /  0.6 km/h 2.3 mph /  3.7 km/h 98 % 0.00 in /  0 mm
05:57 66.9 °F /  19.4 °C 66.3 °F /  19.1 °C 29.88 in /  1011.7 hPa Calm     98 % 0.00 in /  0 mm
06:02 67.0 °F /  19.4 °C 66.4 °F /  19.1 °C 29.88 in /  1011.7 hPa Calm     98 % 0.00 in /  0 mm
06:07 67.0 °F /  19.4 °C 66.4 °F /  19.1 °C 29.88 in /  1011.7 hPa Calm     98 % 0.00 in /  0 mm
06:12 67.0 °F /  19.4 °C 66.4 °F /  19.1 °C 29.88 in /  1011.7 hPa Calm     98 % 0.00 in /  0 mm
06:17 67.0 °F /  19.4 °C 66.4 °F /  19.1 °C 29.88 in /  1011.7 hPa Calm     98 % 0.00 in /  0 mm
06:22 67.0 °F /  19.4 °C 66.4 °F /  19.1 °C 29.88 in /  1011.7 hPa Calm     98 % 0.00 in /  0 mm
06:27 67.1 °F /  19.5 °C 66.5 °F /  19.2 °C 29.88 in /  1011.7 hPa Calm     98 % 0.00 in /  0 mm
06:32 67.1 °F /  19.5 °C 66.5 °F /  19.2 °C 29.88 in /  1011.7 hPa Calm     98 % 0.00 in /  0 mm
06:37 67.2 °F /  19.6 °C 66.6 °F /  19.2 °C 29.88 in /  1011.7 hPa Calm     98 % 0.00 in /  0 mm
06:42 67.3 °F /  19.6 °C 66.7 °F /  19.3 °C 29.88 in /  1011.7 hPa Calm     98 % 0.00 in /  0 mm
06:47 67.4 °F /  19.7 °C 66.8 °F /  19.3 °C 29.88 in /  1011.7 hPa Calm     98 % 0.00 in /  0 mm
06:52 67.4 °F /  19.7 °C 66.8 °F /  19.3 °C 29.89 in /  1012.1 hPa Calm     98 % 0.00 in /  0 mm
06:57 67.5 °F /  19.7 °C 66.9 °F /  19.4 °C 29.89 in /  1012.1 hPa Calm     98 % 0.00 in /  0 mm
07:02 67.6 °F /  19.8 °C 67.0 °F /  19.4 °C 29.89 in /  1012.1 hPa Calm     98 % 0.00 in /  0 mm
07:07 67.7 °F /  19.8 °C 67.1 °F /  19.5 °C 29.89 in /  1012.1 hPa Calm     98 % 0.00 in /  0 mm
07:12 67.7 °F /  19.8 °C 67.1 °F /  19.5 °C 29.90 in /  1012.4 hPa ENE 1.0 mph /  1.6 km/h 2.3 mph /  3.7 km/h 98 % 0.00 in /  0 mm
07:17 67.8 °F /  19.9 °C 67.2 °F /  19.6 °C 29.90 in /  1012.4 hPa North 0.3 mph /  0.5 km/h 2.3 mph /  3.7 km/h 98 % 0.00 in /  0 mm
07:22 67.8 °F /  19.9 °C 67.2 °F /  19.6 °C 29.90 in /  1012.4 hPa Calm     98 % 0.00 in /  0 mm
07:27 67.8 °F /  19.9 °C 67.2 °F /  19.6 °C 29.91 in /  1012.8 hPa North 0.8 mph /  1.3 km/h 3.5 mph /  5.6 km/h 98 % 0.00 in /  0 mm
07:32 67.8 °F /  19.9 °C 67.2 °F /  19.6 °C 29.91 in /  1012.8 hPa North 2.1 mph /  3.4 km/h 4.0 mph /  6.4 km/h 98 % 0.00 in /  0 mm
07:37 67.8 °F /  19.9 °C 67.2 °F /  19.6 °C 29.91 in /  1012.8 hPa North 2.8 mph /  4.5 km/h 4.6 mph /  7.4 km/h 98 % 0.00 in /  0 mm
07:42 67.7 °F /  19.8 °C 67.1 °F /  19.5 °C 29.91 in /  1012.8 hPa North 1.2 mph /  1.9 km/h 3.5 mph /  5.6 km/h 98 % 0.00 in /  0 mm
07:45 67.7 °F /  19.8 °C 67.1 °F /  19.5 °C 29.91 in /  1012.8 hPa North 0.1 mph /  0.2 km/h 3.5 mph /  5.6 km/h 98 % 0.00 in /  0 mm
07:50 67.6 °F /  19.8 °C 67.0 °F /  19.4 °C 29.91 in /  1012.8 hPa North 0.4 mph /  0.6 km/h 2.0 mph /  3.2 km/h 98 % 0.00 in /  0 mm
07:55 67.7 °F /  19.8 °C 67.1 °F /  19.5 °C 29.90 in /  1012.4 hPa North 0.9 mph /  1.4 km/h 3.5 mph /  5.6 km/h 98 % 0.00 in /  0 mm
08:00 67.7 °F /  19.8 °C 67.1 °F /  19.5 °C 29.90 in /  1012.4 hPa NNE 3.2 mph /  5.1 km/h 4.6 mph /  7.4 km/h 98 % 0.00 in /  0 mm
08:05 67.6 °F /  19.8 °C 67.0 °F /  19.4 °C 29.90 in /  1012.4 hPa NNE 1.5 mph /  2.4 km/h 3.5 mph /  5.6 km/h 98 % 0.00 in /  0 mm
08:07 67.5 °F /  19.7 °C 66.9 °F /  19.4 °C 29.90 in /  1012.4 hPa NNE 0.1 mph /  0.2 km/h 1.2 mph /  1.9 km/h 98 % 0.00 in /  0 mm
08:12 67.4 °F /  19.7 °C 66.8 °F /  19.3 °C 29.91 in /  1012.8 hPa Calm   1.2 mph /  1.9 km/h 98 % 0.00 in /  0 mm
08:17 67.4 °F /  19.7 °C 66.8 °F /  19.3 °C 29.90 in /  1012.4 hPa NNE 0.1 mph /  0.2 km/h 1.2 mph /  1.9 km/h 98 % 0.00 in /  0 mm
08:22 67.4 °F /  19.7 °C 66.8 °F /  19.3 °C 29.91 in /  1012.8 hPa NNE 1.2 mph /  1.9 km/h 3.5 mph /  5.6 km/h 98 % 0.00 in /  0 mm
08:27 67.4 °F /  19.7 °C 66.8 °F /  19.3 °C 29.91 in /  1012.8 hPa North 1.5 mph /  2.4 km/h 3.5 mph /  5.6 km/h 98 % 0.00 in /  0 mm
08:32 67.4 °F /  19.7 °C 66.8 °F /  19.3 °C 29.91 in /  1012.8 hPa NNE 1.5 mph /  2.4 km/h 3.5 mph /  5.6 km/h 98 % 0.00 in /  0 mm
08:37 67.4 °F /  19.7 °C 66.8 °F /  19.3 °C 29.91 in /  1012.8 hPa NNE 0.6 mph /  1 km/h 2.0 mph /  3.2 km/h 98 % 0.00 in /  0 mm
08:42 67.5 °F /  19.7 °C 66.9 °F /  19.4 °C 29.91 in /  1012.8 hPa NNE 2.5 mph /  4 km/h 3.5 mph /  5.6 km/h 98 % 0.00 in /  0 mm
08:48 67.5 °F /  19.7 °C 66.9 °F /  19.4 °C 29.91 in /  1012.8 hPa NNE 0.2 mph /  0.3 km/h 1.2 mph /  1.9 km/h 98 % 0.00 in /  0 mm
08:53 67.4 °F /  19.7 °C 66.8 °F /  19.3 °C 29.91 in /  1012.8 hPa Calm     98 % 0.00 in /  0 mm
08:58 67.5 °F /  19.7 °C 66.9 °F /  19.4 °C 29.91 in /  1012.8 hPa NNE 0.6 mph /  1 km/h 2.3 mph /  3.7 km/h 98 % 0.00 in /  0 mm
09:03 67.5 °F /  19.7 °C 66.9 °F /  19.4 °C 29.91 in /  1012.8 hPa NNE 0.2 mph /  0.3 km/h 1.2 mph /  1.9 km/h 98 % 0.00 in /  0 mm
09:08 67.6 °F /  19.8 °C 67.0 °F /  19.4 °C 29.91 in /  1012.8 hPa NNE 1.5 mph /  2.4 km/h 3.5 mph /  5.6 km/h 98 % 0.00 in /  0 mm
09:13 67.6 °F /  19.8 °C 67.0 °F /  19.4 °C 29.91 in /  1012.8 hPa Calm   2.3 mph /  3.7 km/h 98 % 0.00 in /  0 mm
09:18 67.7 °F /  19.8 °C 67.1 °F /  19.5 °C 29.91 in /  1012.8 hPa Calm     98 % 0.00 in /  0 mm
09:23 67.8 °F /  19.9 °C 67.2 °F /  19.6 °C 29.90 in /  1012.4 hPa Calm   1.2 mph /  1.9 km/h 98 % 0.00 in /  0 mm
09:28 67.8 °F /  19.9 °C 67.2 °F /  19.6 °C 29.91 in /  1012.8 hPa Calm     98 % 0.00 in /  0 mm
09:33 67.9 °F /  19.9 °C 67.3 °F /  19.6 °C 29.90 in /  1012.4 hPa Calm   1.0 mph /  1.6 km/h 98 % 0.00 in /  0 mm
09:38 67.9 °F /  19.9 °C 67.3 °F /  19.6 °C 29.90 in /  1012.4 hPa North 1.9 mph /  3.1 km/h 3.5 mph /  5.6 km/h 98 % 0.00 in /  0 mm
09:43 68.0 °F /  20 °C 67.4 °F /  19.7 °C 29.90 in /  1012.4 hPa North 0.6 mph /  1 km/h 3.5 mph /  5.6 km/h 98 % 0.00 in /  0 mm
09:48 68.1 °F /  20.1 °C 67.5 °F /  19.7 °C 29.90 in /  1012.4 hPa North 0.3 mph /  0.5 km/h 1.2 mph /  1.9 km/h 98 % 0.00 in /  0 mm
09:53 68.1 °F /  20.1 °C 67.5 °F /  19.7 °C 29.90 in /  1012.4 hPa NNE 1.7 mph /  2.7 km/h 1.7 mph /  2.7 km/h 98 % 0.00 in /  0 mm
09:59 68.4 °F /  20.2 °C 67.8 °F /  19.9 °C 29.90 in /  1012.4 hPa Calm     98 % 0.00 in /  0 mm
10:04 68.5 °F /  20.3 °C 67.9 °F /  19.9 °C 29.90 in /  1012.4 hPa Calm   1.2 mph /  1.9 km/h 98 % 0.00 in /  0 mm
10:08 68.6 °F /  20.3 °C 68.0 °F /  20 °C 29.89 in /  1012.1 hPa Calm     98 % 0.00 in /  0 mm
10:14 68.8 °F /  20.4 °C 68.2 °F /  20.1 °C 29.89 in /  1012.1 hPa Calm     98 % 0.00 in /  0 mm
10:19 69.0 °F /  20.6 °C 68.4 °F /  20.2 °C 29.89 in /  1012.1 hPa NNE 0.2 mph /  0.3 km/h 1.2 mph /  1.9 km/h 98 % 0.00 in /  0 mm
10:24 69.2 °F /  20.7 °C 68.6 °F /  20.3 °C 29.89 in /  1012.1 hPa Calm     98 % 0.00 in /  0 mm
10:29 69.3 °F /  20.7 °C 68.7 °F /  20.4 °C 29.89 in /  1012.1 hPa Calm     98 % 0.00 in /  0 mm
10:34 69.7 °F /  20.9 °C 69.1 °F /  20.6 °C 29.89 in /  1012.1 hPa NNE 0.7 mph /  1.1 km/h 2.3 mph /  3.7 km/h 98 % 0.00 in /  0 mm
10:39 70.4 °F /  21.3 °C 69.8 °F /  21 °C 29.89 in /  1012.1 hPa NNE 0.2 mph /  0.3 km/h 1.2 mph /  1.9 km/h 98 % 0.00 in /  0 mm
10:44 70.9 °F /  21.6 °C 70.3 °F /  21.3 °C 29.89 in /  1012.1 hPa NNE 0.9 mph /  1.4 km/h 2.3 mph /  3.7 km/h 98 % 0.00 in /  0 mm
10:49 71.4 °F /  21.9 °C 71.1 °F /  21.7 °C 29.89 in /  1012.1 hPa NNE 1.3 mph /  2.1 km/h 2.3 mph /  3.7 km/h 99 % 0.00 in /  0 mm
10:54 71.6 °F /  22 °C 71.0 °F /  21.7 °C 29.89 in /  1012.1 hPa NNW 1.5 mph /  2.4 km/h 5.0 mph /  8 km/h 98 % 0.00 in /  0 mm
10:59 71.5 °F /  21.9 °C 70.9 °F /  21.6 °C 29.89 in /  1012.1 hPa North 1.1 mph /  1.8 km/h 2.3 mph /  3.7 km/h 98 % 0.00 in /  0 mm
11:04 71.7 °F /  22.1 °C 71.1 °F /  21.7 °C 29.89 in /  1012.1 hPa NNE 0.6 mph /  1 km/h 3.5 mph /  5.6 km/h 98 % 0.00 in /  0 mm
11:10 72.2 °F /  22.3 °C 71.6 °F /  22 °C 29.89 in /  1012.1 hPa Calm     98 % 0.00 in /  0 mm
11:15 72.5 °F /  22.5 °C 71.6 °F /  22 °C 29.89 in /  1012.1 hPa Calm   3.5 mph /  5.6 km/h 97 % 0.00 in /  0 mm
11:20 72.8 °F /  22.7 °C 71.9 °F /  22.2 °C 29.89 in /  1012.1 hPa Calm     97 % 0.00 in /  0 mm
11:25 73.1 °F /  22.8 °C 71.9 °F /  22.2 °C 29.89 in /  1012.1 hPa NNE 0.5 mph /  0.8 km/h 2.3 mph /  3.7 km/h 96 % 0.00 in /  0 mm
11:30 73.5 °F /  23.1 °C 72.0 °F /  22.2 °C 29.89 in /  1012.1 hPa Calm   1.2 mph /  1.9 km/h 95 % 0.00 in /  0 mm
11:35 74.3 °F /  23.5 °C 72.8 °F /  22.7 °C 29.89 in /  1012.1 hPa NNE 0.3 mph /  0.5 km/h 1.2 mph /  1.9 km/h 95 % 0.00 in /  0 mm
11:40 75.2 °F /  24 °C 73.7 °F /  23.2 °C 29.89 in /  1012.1 hPa North 1.9 mph /  3.1 km/h 3.5 mph /  5.6 km/h 95 % 0.00 in /  0 mm
11:45 75.7 °F /  24.3 °C 73.2 °F /  22.9 °C 29.89 in /  1012.1 hPa NW 0.1 mph /  0.2 km/h 1.2 mph /  1.9 km/h 92 % 0.00 in /  0 mm
11:50 76.5 °F /  24.7 °C 74.0 °F /  23.3 °C 29.89 in /  1012.1 hPa NNW 1.3 mph /  2.1 km/h 3.5 mph /  5.6 km/h 92 % 0.00 in /  0 mm
11:55 77.2 °F /  25.1 °C 73.7 °F /  23.2 °C 29.89 in /  1012.1 hPa Calm     89 % 0.00 in /  0 mm
12:00 78.1 °F /  25.6 °C 73.6 °F /  23.1 °C 29.89 in /  1012.1 hPa WNW 2.7 mph /  4.3 km/h 3.5 mph /  5.6 km/h 86 % 0.00 in /  0 mm
12:05 78.4 °F /  25.8 °C 73.5 °F /  23.1 °C 29.89 in /  1012.1 hPa WNW 0.5 mph /  0.8 km/h 2.3 mph /  3.7 km/h 85 % 0.00 in /  0 mm
12:10 78.7 °F /  25.9 °C 73.8 °F /  23.2 °C 29.89 in /  1012.1 hPa WSW 0.9 mph /  1.4 km/h 4.0 mph /  6.4 km/h 85 % 0.00 in /  0 mm
12:15 79.3 °F /  26.3 °C 74.4 °F /  23.6 °C 29.89 in /  1012.1 hPa West 0.3 mph /  0.5 km/h 1.2 mph /  1.9 km/h 85 % 0.00 in /  0 mm
12:20 80.1 °F /  26.7 °C 74.8 °F /  23.8 °C 29.89 in /  1012.1 hPa West 0.7 mph /  1.1 km/h 3.0 mph /  4.8 km/h 84 % 0.00 in /  0 mm
12:26 80.6 °F /  27 °C 74.2 °F /  23.4 °C 29.89 in /  1012.1 hPa Calm   4.0 mph /  6.4 km/h 81 % 0.00 in /  0 mm
12:31 81.0 °F /  27.2 °C 74.3 °F /  23.5 °C 29.89 in /  1012.1 hPa NW 1.0 mph /  1.6 km/h 4.0 mph /  6.4 km/h 80 % 0.00 in /  0 mm
12:36 81.5 °F /  27.5 °C 74.7 °F /  23.7 °C 29.89 in /  1012.1 hPa Calm   2.3 mph /  3.7 km/h 80 % 0.00 in /  0 mm
12:41 81.9 °F /  27.7 °C 75.1 °F /  23.9 °C 29.88 in /  1011.7 hPa Calm   1.0 mph /  1.6 km/h 80 % 0.00 in /  0 mm
12:46 82.2 °F /  27.9 °C 75.1 °F /  23.9 °C 29.88 in /  1011.7 hPa Calm   1.0 mph /  1.6 km/h 79 % 0.00 in /  0 mm
12:51 82.6 °F /  28.1 °C 74.6 °F /  23.7 °C 29.88 in /  1011.7 hPa NNE 1.0 mph /  1.6 km/h 4.0 mph /  6.4 km/h 77 % 0.00 in /  0 mm
12:56 82.7 °F /  28.2 °C 74.4 °F /  23.6 °C 29.88 in /  1011.7 hPa Calm   3.0 mph /  4.8 km/h 76 % 0.00 in /  0 mm
13:01 82.9 °F /  28.3 °C 74.6 °F /  23.7 °C 29.87 in /  1011.4 hPa NNE 2.4 mph /  3.9 km/h 4.0 mph /  6.4 km/h 76 % 0.00 in /  0 mm
13:06 83.2 °F /  28.4 °C 74.4 °F /  23.6 °C 29.87 in /  1011.4 hPa Calm   3.5 mph /  5.6 km/h 75 % 0.00 in /  0 mm
13:11 83.3 °F /  28.5 °C 74.5 °F /  23.6 °C 29.87 in /  1011.4 hPa Calm   1.0 mph /  1.6 km/h 75 % 0.00 in /  0 mm
13:16 83.5 °F /  28.6 °C 74.7 °F /  23.7 °C 29.87 in /  1011.4 hPa NNE 1.0 mph /  1.6 km/h 5.0 mph /  8 km/h 75 % 0.00 in /  0 mm
13:21 83.6 °F /  28.7 °C 74.4 °F /  23.6 °C 29.87 in /  1011.4 hPa Calm   2.0 mph /  3.2 km/h 74 % 0.00 in /  0 mm
13:26 83.6 °F /  28.7 °C 74.8 °F /  23.8 °C 29.86 in /  1011.1 hPa NE 1.0 mph /  1.6 km/h 3.0 mph /  4.8 km/h 75 % 0.00 in /  0 mm
13:31 83.8 °F /  28.8 °C 75.4 °F /  24.1 °C 29.86 in /  1011.1 hPa Calm   1.0 mph /  1.6 km/h 76 % 0.00 in /  0 mm
13:36 84.0 °F /  28.9 °C 74.4 °F /  23.6 °C 29.87 in /  1011.4 hPa Calm   2.0 mph /  3.2 km/h 73 % 0.00 in /  0 mm
13:41 84.2 °F /  29 °C 76.2 °F /  24.6 °C 29.86 in /  1011.1 hPa Calm     77 % 0.00 in /  0 mm
13:46 84.5 °F /  29.2 °C 74.5 °F /  23.6 °C 29.86 in /  1011.1 hPa NW 2.0 mph /  3.2 km/h 5.0 mph /  8 km/h 72 % 0.00 in /  0 mm
13:51 84.8 °F /  29.3 °C 74.3 °F /  23.5 °C 29.86 in /  1011.1 hPa West 2.0 mph /  3.2 km/h 5.0 mph /  8 km/h 71 % 0.00 in /  0 mm
13:56 85.2 °F /  29.6 °C 75.6 °F /  24.2 °C 29.86 in /  1011.1 hPa WNW 2.0 mph /  3.2 km/h 4.0 mph /  6.4 km/h 73 % 0.00 in /  0 mm
14:01 85.5 °F /  29.7 °C 75.0 °F /  23.9 °C 29.86 in /  1011.1 hPa WNW 1.6 mph /  2.6 km/h 3.5 mph /  5.6 km/h 71 % 0.00 in /  0 mm
14:06 85.8 °F /  29.9 °C 74.4 °F /  23.6 °C 29.85 in /  1010.7 hPa WSW 1.9 mph /  3.1 km/h 3.5 mph /  5.6 km/h 69 % 0.00 in /  0 mm
14:11 86.0 °F /  30 °C 72.9 °F /  22.7 °C 29.85 in /  1010.7 hPa West 0.8 mph /  1.3 km/h 3.5 mph /  5.6 km/h 65 % 0.00 in /  0 mm
14:16 86.3 °F /  30.2 °C 74.5 °F /  23.6 °C 29.85 in /  1010.7 hPa WNW 2.3 mph /  3.7 km/h 3.5 mph /  5.6 km/h 68 % 0.00 in /  0 mm
14:21 86.6 °F /  30.3 °C 73.9 °F /  23.3 °C 29.85 in /  1010.7 hPa SW 1.9 mph /  3.1 km/h 3.5 mph /  5.6 km/h 66 % 0.00 in /  0 mm
14:26 86.8 °F /  30.4 °C 74.1 °F /  23.4 °C 29.85 in /  1010.7 hPa WSW 2.5 mph /  4 km/h 4.6 mph /  7.4 km/h 66 % 0.00 in /  0 mm
14:31 86.9 °F /  30.5 °C 72.8 °F /  22.7 °C 29.85 in /  1010.7 hPa WSW 5.0 mph /  8 km/h 6.9 mph /  11.1 km/h 63 % 0.00 in /  0 mm
14:36 87.0 °F /  30.6 °C 73.3 °F /  22.9 °C 29.85 in /  1010.7 hPa Calm   1.2 mph /  1.9 km/h 64 % 0.00 in /  0 mm
14:41 87.2 °F /  30.7 °C 73.5 °F /  23.1 °C 29.85 in /  1010.7 hPa NW 0.8 mph /  1.3 km/h 3.5 mph /  5.6 km/h 64 % 0.00 in /  0 mm
14:46 87.4 °F /  30.8 °C 73.7 °F /  23.2 °C 29.84 in /  1010.4 hPa NW 0.5 mph /  0.8 km/h 3.5 mph /  5.6 km/h 64 % 0.00 in /  0 mm
14:51 87.6 °F /  30.9 °C 73.0 °F /  22.8 °C 29.84 in /  1010.4 hPa WSW 0.7 mph /  1.1 km/h 2.3 mph /  3.7 km/h 62 % 0.00 in /  0 mm
14:56 87.8 °F /  31 °C 73.6 °F /  23.1 °C 29.84 in /  1010.4 hPa WSW 1.4 mph /  2.3 km/h 3.5 mph /  5.6 km/h 63 % 0.00 in /  0 mm
15:01 88.0 °F /  31.1 °C 74.3 °F /  23.5 °C 29.84 in /  1010.4 hPa Calm   2.3 mph /  3.7 km/h 64 % 0.00 in /  0 mm
15:06 88.2 °F /  31.2 °C 71.6 °F /  22 °C 29.84 in /  1010.4 hPa West 3.8 mph /  6.1 km/h 7.0 mph /  11.3 km/h 58 % 0.00 in /  0 mm
15:11 88.3 °F /  31.3 °C 72.2 °F /  22.3 °C 29.84 in /  1010.4 hPa WNW 1.0 mph /  1.6 km/h 5.8 mph /  9.3 km/h 59 % 0.00 in /  0 mm
15:16 88.5 °F /  31.4 °C 73.8 °F /  23.2 °C 29.84 in /  1010.4 hPa North 1.8 mph /  2.9 km/h 3.5 mph /  5.6 km/h 62 % 0.00 in /  0 mm
15:22 88.6 °F /  31.4 °C 72.4 °F /  22.4 °C 29.84 in /  1010.4 hPa NW 1.2 mph /  1.9 km/h 2.3 mph /  3.7 km/h 59 % 0.00 in /  0 mm
15:27 88.7 °F /  31.5 °C 73.5 °F /  23.1 °C 29.84 in /  1010.4 hPa WNW 0.3 mph /  0.5 km/h 2.3 mph /  3.7 km/h 61 % 0.00 in /  0 mm
15:32 89.0 °F /  31.7 °C 73.8 °F /  23.2 °C 29.84 in /  1010.4 hPa Calm   1.2 mph /  1.9 km/h 61 % 0.00 in /  0 mm
15:37 88.8 °F /  31.6 °C 71.6 °F /  22 °C 29.84 in /  1010.4 hPa NW 3.4 mph /  5.5 km/h 5.8 mph /  9.3 km/h 57 % 0.00 in /  0 mm
15:42 89.0 °F /  31.7 °C 73.3 °F /  22.9 °C 29.84 in /  1010.4 hPa WNW 1.3 mph /  2.1 km/h 2.3 mph /  3.7 km/h 60 % 0.00 in /  0 mm
15:47 88.9 °F /  31.6 °C 72.2 °F /  22.3 °C 29.84 in /  1010.4 hPa West 1.0 mph /  1.6 km/h 2.3 mph /  3.7 km/h 58 % 0.00 in /  0 mm
15:52 88.7 °F /  31.5 °C 72.0 °F /  22.2 °C 29.83 in /  1010 hPa NW 2.0 mph /  3.2 km/h 3.5 mph /  5.6 km/h 58 % 0.00 in /  0 mm
15:57 88.5 °F /  31.4 °C 71.8 °F /  22.1 °C 29.84 in /  1010.4 hPa Calm   2.3 mph /  3.7 km/h 58 % 0.00 in /  0 mm
16:02 88.1 °F /  31.2 °C 71.5 °F /  21.9 °C 29.84 in /  1010.4 hPa North 0.3 mph /  0.5 km/h 3.5 mph /  5.6 km/h 58 % 0.00 in /  0 mm
16:07 87.7 °F /  30.9 °C 70.6 °F /  21.4 °C 29.84 in /  1010.4 hPa West 0.7 mph /  1.1 km/h 2.0 mph /  3.2 km/h 57 % 0.00 in /  0 mm
16:12 87.3 °F /  30.7 °C 69.7 °F /  20.9 °C 29.84 in /  1010.4 hPa WNW 0.3 mph /  0.5 km/h 3.5 mph /  5.6 km/h 56 % 0.00 in /  0 mm
16:14 87.1 °F /  30.6 °C 69.5 °F /  20.8 °C 29.84 in /  1010.4 hPa WNW 0.5 mph /  0.8 km/h 3.5 mph /  5.6 km/h 56 % 0.00 in /  0 mm
16:19 86.7 °F /  30.4 °C 70.7 °F /  21.5 °C 29.84 in /  1010.4 hPa WNW 1.9 mph /  3.1 km/h 3.5 mph /  5.6 km/h 59 % 0.00 in /  0 mm
16:24 86.4 °F /  30.2 °C 70.9 °F /  21.6 °C 29.84 in /  1010.4 hPa WNW 1.2 mph /  1.9 km/h 7.0 mph /  11.3 km/h 60 % 0.00 in /  0 mm
16:29 86.1 °F /  30.1 °C 69.1 °F /  20.6 °C 29.84 in /  1010.4 hPa WSW 1.2 mph /  1.9 km/h 3.5 mph /  5.6 km/h 57 % 0.00 in /  0 mm
16:34 85.7 °F /  29.8 °C 68.7 °F /  20.4 °C 29.84 in /  1010.4 hPa WNW 1.0 mph /  1.6 km/h 2.3 mph /  3.7 km/h 57 % 0.00 in /  0 mm
16:39 85.5 °F /  29.7 °C 69.5 °F /  20.8 °C 29.83 in /  1010 hPa WNW 0.1 mph /  0.2 km/h 2.3 mph /  3.7 km/h 59 % 0.00 in /  0 mm
16:44 85.3 °F /  29.6 °C 69.8 °F /  21 °C 29.83 in /  1010 hPa West 0.9 mph /  1.4 km/h 4.6 mph /  7.4 km/h 60 % 0.00 in /  0 mm
16:49 85.2 °F /  29.6 °C 69.3 °F /  20.7 °C 29.83 in /  1010 hPa WNW 1.6 mph /  2.6 km/h 3.5 mph /  5.6 km/h 59 % 0.00 in /  0 mm
16:54 85.3 °F /  29.6 °C 69.3 °F /  20.7 °C 29.83 in /  1010 hPa WNW 3.6 mph /  5.8 km/h 5.8 mph /  9.3 km/h 59 % 0.00 in /  0 mm
16:59 85.3 °F /  29.6 °C 70.3 °F /  21.3 °C 29.83 in /  1010 hPa WNW 0.4 mph /  0.6 km/h 3.5 mph /  5.6 km/h 61 % 0.00 in /  0 mm
17:04 85.3 °F /  29.6 °C 71.3 °F /  21.8 °C 29.83 in /  1010 hPa North 0.8 mph /  1.3 km/h 3.5 mph /  5.6 km/h 63 % 0.00 in /  0 mm
17:09 85.3 °F /  29.6 °C 71.3 °F /  21.8 °C 29.83 in /  1010 hPa WNW 1.2 mph /  1.9 km/h 4.0 mph /  6.4 km/h 63 % 0.00 in /  0 mm
17:14 85.4 °F /  29.7 °C 70.9 °F /  21.6 °C 29.83 in /  1010 hPa Calm   1.2 mph /  1.9 km/h 62 % 0.00 in /  0 mm
17:19 85.4 °F /  29.7 °C 69.9 °F /  21.1 °C 29.83 in /  1010 hPa West 2.3 mph /  3.7 km/h 4.0 mph /  6.4 km/h 60 % 0.00 in /  0 mm
17:24 85.2 °F /  29.6 °C 70.7 °F /  21.5 °C 29.83 in /  1010 hPa Calm   1.0 mph /  1.6 km/h 62 % 0.00 in /  0 mm
17:29 85.1 °F /  29.5 °C 69.7 °F /  20.9 °C 29.83 in /  1010 hPa NW 2.1 mph /  3.4 km/h 5.8 mph /  9.3 km/h 60 % 0.00 in /  0 mm
17:34 85.0 °F /  29.4 °C 69.1 °F /  20.6 °C 29.83 in /  1010 hPa WNW 1.9 mph /  3.1 km/h 3.5 mph /  5.6 km/h 59 % 0.00 in /  0 mm
17:39 84.6 °F /  29.2 °C 68.7 °F /  20.4 °C 29.83 in /  1010 hPa WNW 2.4 mph /  3.9 km/h 3.5 mph /  5.6 km/h 59 % 0.00 in /  0 mm
17:44 84.4 °F /  29.1 °C 69.0 °F /  20.6 °C 29.83 in /  1010 hPa NW 2.0 mph /  3.2 km/h 4.6 mph /  7.4 km/h 60 % 0.00 in /  0 mm
17:49 84.2 °F /  29 °C 69.3 °F /  20.7 °C 29.83 in /  1010 hPa WNW 0.8 mph /  1.3 km/h 2.3 mph /  3.7 km/h 61 % 0.00 in /  0 mm
17:53 84.0 °F /  28.9 °C 69.6 °F /  20.9 °C 29.83 in /  1010 hPa WNW 0.6 mph /  1 km/h 3.0 mph /  4.8 km/h 62 % 0.00 in /  0 mm
17:58 83.8 °F /  28.8 °C 68.4 °F /  20.2 °C 29.83 in /  1010 hPa WNW 3.0 mph /  4.8 km/h 5.8 mph /  9.3 km/h 60 % 0.00 in /  0 mm
18:03 83.6 °F /  28.7 °C 68.2 °F /  20.1 °C 29.82 in /  1009.7 hPa West 4.2 mph /  6.8 km/h 5.8 mph /  9.3 km/h 60 % 0.00 in /  0 mm
18:08 83.5 °F /  28.6 °C 69.1 °F /  20.6 °C 29.83 in /  1010 hPa WNW 3.4 mph /  5.5 km/h 4.6 mph /  7.4 km/h 62 % 0.00 in /  0 mm
18:13 83.4 °F /  28.6 °C 68.5 °F /  20.3 °C 29.83 in /  1010 hPa NW 2.2 mph /  3.5 km/h 3.5 mph /  5.6 km/h 61 % 0.00 in /  0 mm
18:18 83.2 °F /  28.4 °C 68.3 °F /  20.2 °C 29.82 in /  1009.7 hPa WNW 2.8 mph /  4.5 km/h 3.5 mph /  5.6 km/h 61 % 0.00 in /  0 mm
18:23 83.0 °F /  28.3 °C 68.2 °F /  20.1 °C 29.82 in /  1009.7 hPa NNW 0.3 mph /  0.5 km/h 2.3 mph /  3.7 km/h 61 % 0.00 in /  0 mm
18:28 82.8 °F /  28.2 °C 68.0 °F /  20 °C 29.82 in /  1009.7 hPa WNW 1.1 mph /  1.8 km/h 4.0 mph /  6.4 km/h 61 % 0.00 in /  0 mm
18:33 82.6 °F /  28.1 °C 67.8 °F /  19.9 °C 29.82 in /  1009.7 hPa NW 1.5 mph /  2.4 km/h 4.6 mph /  7.4 km/h 61 % 0.00 in /  0 mm
18:38 82.5 °F /  28.1 °C 67.7 °F /  19.8 °C 29.82 in /  1009.7 hPa West 2.2 mph /  3.5 km/h 5.0 mph /  8 km/h 61 % 0.00 in /  0 mm
18:43 82.3 °F /  27.9 °C 67.0 °F /  19.4 °C 29.82 in /  1009.7 hPa NW 2.7 mph /  4.3 km/h 8.1 mph /  13 km/h 60 % 0.00 in /  0 mm
18:48 82.1 °F /  27.8 °C 67.3 °F /  19.6 °C 29.82 in /  1009.7 hPa WNW 2.9 mph /  4.7 km/h 3.5 mph /  5.6 km/h 61 % 0.00 in /  0 mm
18:53 82.0 °F /  27.8 °C 67.2 °F /  19.6 °C 29.82 in /  1009.7 hPa WNW 1.4 mph /  2.3 km/h 3.5 mph /  5.6 km/h 61 % 0.00 in /  0 mm
18:58 81.8 °F /  27.7 °C 67.0 °F /  19.4 °C 29.82 in /  1009.7 hPa WNW 2.9 mph /  4.7 km/h 3.5 mph /  5.6 km/h 61 % 0.00 in /  0 mm
19:03 81.7 °F /  27.6 °C 66.9 °F /  19.4 °C 29.82 in /  1009.7 hPa NW 1.3 mph /  2.1 km/h 3.5 mph /  5.6 km/h 61 % 0.00 in /  0 mm
19:08 81.5 °F /  27.5 °C 66.8 °F /  19.3 °C 29.82 in /  1009.7 hPa WNW 3.9 mph /  6.3 km/h 6.9 mph /  11.1 km/h 61 % 0.00 in /  0 mm
19:14 81.3 °F /  27.4 °C 66.6 °F /  19.2 °C 29.82 in /  1009.7 hPa WNW 2.6 mph /  4.2 km/h 5.8 mph /  9.3 km/h 61 % 0.00 in /  0 mm
19:19 81.1 °F /  27.3 °C 66.8 °F /  19.3 °C 29.82 in /  1009.7 hPa WNW 1.1 mph /  1.8 km/h 3.5 mph /  5.6 km/h 62 % 0.00 in /  0 mm
19:24 80.9 °F /  27.2 °C 66.7 °F /  19.3 °C 29.82 in /  1009.7 hPa North 0.5 mph /  0.8 km/h 2.3 mph /  3.7 km/h 62 % 0.00 in /  0 mm
19:29 80.8 °F /  27.1 °C 67.5 °F /  19.7 °C 29.83 in /  1010 hPa WNW 1.9 mph /  3.1 km/h 4.0 mph /  6.4 km/h 64 % 0.00 in /  0 mm
19:34 80.6 °F /  27 °C 66.8 °F /  19.3 °C 29.83 in /  1010 hPa NW 2.1 mph /  3.4 km/h 3.5 mph /  5.6 km/h 63 % 0.00 in /  0 mm
19:39 80.4 °F /  26.9 °C 66.2 °F /  19 °C 29.83 in /  1010 hPa WNW 1.3 mph /  2.1 km/h 4.6 mph /  7.4 km/h 62 % 0.00 in /  0 mm
19:44 80.1 °F /  26.7 °C 65.4 °F /  18.6 °C 29.83 in /  1010 hPa West 1.9 mph /  3.1 km/h 4.0 mph /  6.4 km/h 61 % 0.00 in /  0 mm
19:49 80.0 °F /  26.7 °C 65.3 °F /  18.5 °C 29.83 in /  1010 hPa WNW 1.2 mph /  1.9 km/h 4.0 mph /  6.4 km/h 61 % 0.00 in /  0 mm
19:54 79.8 °F /  26.6 °C 65.2 °F /  18.4 °C 29.83 in /  1010 hPa Calm   1.2 mph /  1.9 km/h 61 % 0.00 in /  0 mm
19:59 79.6 °F /  26.4 °C 65.4 °F /  18.6 °C 29.83 in /  1010 hPa Calm     62 % 0.00 in /  0 mm
20:04 79.5 °F /  26.4 °C 65.8 °F /  18.8 °C 29.83 in /  1010 hPa Calm   1.0 mph /  1.6 km/h 63 % 0.00 in /  0 mm
20:09 79.3 °F /  26.3 °C 65.6 °F /  18.7 °C 29.83 in /  1010 hPa Calm     63 % 0.00 in /  0 mm
20:14 79.2 °F /  26.2 °C 66.0 °F /  18.9 °C 29.83 in /  1010 hPa WNW 0.6 mph /  1 km/h 2.3 mph /  3.7 km/h 64 % 0.00 in /  0 mm
20:19 79.0 °F /  26.1 °C 66.2 °F /  19 °C 29.83 in /  1010 hPa Calm     65 % 0.00 in /  0 mm
20:24 78.9 °F /  26.1 °C 66.6 °F /  19.2 °C 29.83 in /  1010 hPa WNW 1.2 mph /  1.9 km/h 3.0 mph /  4.8 km/h 66 % 0.00 in /  0 mm
20:29 78.7 °F /  25.9 °C 66.4 °F /  19.1 °C 29.83 in /  1010 hPa WNW 0.1 mph /  0.2 km/h 2.0 mph /  3.2 km/h 66 % 0.00 in /  0 mm
20:34 78.6 °F /  25.9 °C 66.3 °F /  19.1 °C 29.83 in /  1010 hPa WNW 1.5 mph /  2.4 km/h 3.5 mph /  5.6 km/h 66 % 0.00 in /  0 mm
20:39 78.4 °F /  25.8 °C 66.1 °F /  18.9 °C 29.84 in /  1010.4 hPa West 1.9 mph /  3.1 km/h 1.9 mph /  3.1 km/h 66 % 0.00 in /  0 mm
20:44 78.2 °F /  25.7 °C 65.9 °F /  18.8 °C 29.84 in /  1010.4 hPa West 0.6 mph /  1 km/h 2.3 mph /  3.7 km/h 66 % 0.00 in /  0 mm
20:50 78.1 °F /  25.6 °C 65.8 °F /  18.8 °C 29.84 in /  1010.4 hPa West 0.1 mph /  0.2 km/h 3.5 mph /  5.6 km/h 66 % 0.00 in /  0 mm
20:55 77.9 °F /  25.5 °C 65.6 °F /  18.7 °C 29.84 in /  1010.4 hPa Calm   1.2 mph /  1.9 km/h 66 % 0.00 in /  0 mm
21:00 77.8 °F /  25.4 °C 65.5 °F /  18.6 °C 29.84 in /  1010.4 hPa WNW 0.1 mph /  0.2 km/h 1.2 mph /  1.9 km/h 66 % 0.00 in /  0 mm
21:05 77.6 °F /  25.3 °C 65.8 °F /  18.8 °C 29.85 in /  1010.7 hPa Calm   2.3 mph /  3.7 km/h 67 % 0.00 in /  0 mm
21:10 77.4 °F /  25.2 °C 65.6 °F /  18.7 °C 29.85 in /  1010.7 hPa Calm   1.2 mph /  1.9 km/h 67 % 0.00 in /  0 mm
21:15 77.3 °F /  25.2 °C 65.9 °F /  18.8 °C 29.85 in /  1010.7 hPa Calm     68 % 0.00 in /  0 mm
21:20 77.1 °F /  25.1 °C 66.6 °F /  19.2 °C 29.86 in /  1011.1 hPa Calm   1.2 mph /  1.9 km/h 70 % 0.00 in /  0 mm
21:25 76.9 °F /  24.9 °C 66.8 °F /  19.3 °C 29.86 in /  1011.1 hPa Calm     71 % 0.00 in /  0 mm
21:30 76.7 °F /  24.8 °C 67.0 °F /  19.4 °C 29.86 in /  1011.1 hPa WNW 0.5 mph /  0.8 km/h 1.2 mph /  1.9 km/h 72 % 0.00 in /  0 mm
21:35 76.5 °F /  24.7 °C 67.2 °F /  19.6 °C 29.86 in /  1011.1 hPa WNW 0.5 mph /  0.8 km/h 2.3 mph /  3.7 km/h 73 % 0.00 in /  0 mm
21:40 76.2 °F /  24.6 °C 66.9 °F /  19.4 °C 29.86 in /  1011.1 hPa WNW 0.1 mph /  0.2 km/h 1.2 mph /  1.9 km/h 73 % 0.00 in /  0 mm
21:45 76.0 °F /  24.4 °C 66.3 °F /  19.1 °C 29.86 in /  1011.1 hPa Calm   1.2 mph /  1.9 km/h 72 % 0.00 in /  0 mm
21:50 75.8 °F /  24.3 °C 66.5 °F /  19.2 °C 29.86 in /  1011.1 hPa Calm     73 % 0.00 in /  0 mm
21:55 75.5 °F /  24.2 °C 66.6 °F /  19.2 °C 29.87 in /  1011.4 hPa Calm     74 % 0.00 in /  0 mm
22:00 75.2 °F /  24 °C 66.3 °F /  19.1 °C 29.87 in /  1011.4 hPa Calm     74 % 0.00 in /  0 mm
22:05 74.9 °F /  23.8 °C 66.1 °F /  18.9 °C 29.87 in /  1011.4 hPa WNW 0.2 mph /  0.3 km/h 1.2 mph /  1.9 km/h 74 % 0.00 in /  0 mm
22:10 74.7 °F /  23.7 °C 66.2 °F /  19 °C 29.87 in /  1011.4 hPa Calm   1.2 mph /  1.9 km/h 75 % 0.00 in /  0 mm
22:15 74.5 °F /  23.6 °C 66.1 °F /  18.9 °C 29.87 in /  1011.4 hPa WNW 0.1 mph /  0.2 km/h 1.2 mph /  1.9 km/h 75 % 0.00 in /  0 mm
22:20 74.2 °F /  23.4 °C 65.8 °F /  18.8 °C 29.87 in /  1011.4 hPa Calm   1.2 mph /  1.9 km/h 75 % 0.00 in /  0 mm
22:25 74.0 °F /  23.3 °C 65.6 °F /  18.7 °C 29.88 in /  1011.7 hPa WNW 0.2 mph /  0.3 km/h 1.2 mph /  1.9 km/h 75 % 0.00 in /  0 mm
22:30 73.7 °F /  23.2 °C 65.3 °F /  18.5 °C 29.88 in /  1011.7 hPa West 0.3 mph /  0.5 km/h 2.3 mph /  3.7 km/h 75 % 0.00 in /  0 mm
22:35 73.5 °F /  23.1 °C 65.5 °F /  18.6 °C 29.88 in /  1011.7 hPa West 2.5 mph /  4 km/h 2.5 mph /  4 km/h 76 % 0.00 in /  0 mm
22:41 73.3 °F /  22.9 °C 64.9 °F /  18.3 °C 29.88 in /  1011.7 hPa Calm   3.0 mph /  4.8 km/h 75 % 0.00 in /  0 mm
22:46 73.2 °F /  22.9 °C 65.2 °F /  18.4 °C 29.88 in /  1011.7 hPa Calm   1.0 mph /  1.6 km/h 76 % 0.00 in /  0 mm
22:48 73.1 °F /  22.8 °C 65.5 °F /  18.6 °C 29.88 in /  1011.7 hPa WSW 0.1 mph /  0.2 km/h 1.2 mph /  1.9 km/h 77 % 0.00 in /  0 mm
22:53 73.0 °F /  22.8 °C 65.4 °F /  18.6 °C 29.88 in /  1011.7 hPa WSW 0.2 mph /  0.3 km/h 1.2 mph /  1.9 km/h 77 % 0.00 in /  0 mm
22:58 72.9 °F /  22.7 °C 65.6 °F /  18.7 °C 29.88 in /  1011.7 hPa WSW 0.1 mph /  0.2 km/h 1.2 mph /  1.9 km/h 78 % 0.00 in /  0 mm
23:03 72.8 °F /  22.7 °C 65.5 °F /  18.6 °C 29.88 in /  1011.7 hPa Calm   2.3 mph /  3.7 km/h 78 % 0.00 in /  0 mm
23:08 72.6 °F /  22.6 °C 65.3 °F /  18.5 °C 29.88 in /  1011.7 hPa Calm   1.2 mph /  1.9 km/h 78 % 0.00 in /  0 mm
23:13 72.5 °F /  22.5 °C 65.6 °F /  18.7 °C 29.87 in /  1011.4 hPa Calm   1.2 mph /  1.9 km/h 79 % 0.00 in /  0 mm
23:18 72.3 °F /  22.4 °C 65.4 °F /  18.6 °C 29.87 in /  1011.4 hPa Calm     79 % 0.00 in /  0 mm
23:23 72.2 °F /  22.3 °C 65.3 °F /  18.5 °C 29.87 in /  1011.4 hPa Calm   1.2 mph /  1.9 km/h 79 % 0.00 in /  0 mm
23:28 72.1 °F /  22.3 °C 65.6 °F /  18.7 °C 29.87 in /  1011.4 hPa Calm   1.0 mph /  1.6 km/h 80 % 0.00 in /  0 mm
23:33 71.9 °F /  22.2 °C 65.4 °F /  18.6 °C 29.87 in /  1011.4 hPa Calm   1.2 mph /  1.9 km/h 80 % 0.00 in /  0 mm
23:38 71.7 °F /  22.1 °C 65.2 °F /  18.4 °C 29.88 in /  1011.7 hPa Calm     80 % 0.00 in /  0 mm
23:43 71.5 °F /  21.9 °C 65.0 °F /  18.3 °C 29.87 in /  1011.4 hPa Calm     80 % 0.00 in /  0 mm
23:49 71.3 °F /  21.8 °C 65.2 °F /  18.4 °C 29.88 in /  1011.7 hPa Calm     81 % 0.00 in /  0 mm
23:54 71.2 °F /  21.8 °C 65.1 °F /  18.4 °C 29.88 in /  1011.7 hPa Calm   1.2 mph /  1.9 km/h 81 % 0.00 in /  0 mm
23:59 71.0 °F /  21.7 °C 64.9 °F /  18.3 °C 29.88 in /  1011.7 hPa Calm     81 % 0.00 in /  0 mm
Crab Meadow Weather
Compliments of Weather Underground - 3 mb

Script developed by  Jim McMurry - jmcmurry@mwt.net Adapted for the template by  Wim van der Kuil - Leuven-Template.eu

Weather Terms: Degree Day - Gauges the amount of heating or cooling needed for a building using 65 degrees as a baseline. To compute degree days, the average temperature for a day is taken and referenced to 65. An average temperature of 50 yields 15 heating degree days, while an average temperature of 75 would yield 10 cooling degree days.